This demonstration page uses our WeatherBlox Daily Observations layout. Learn more.

39.29038, -76.61219

Hourly Observations for December 4, 2019

Temp ( °F °C ) Dew Point ( °F °C ) Humidity (%) Winds ( mph kmh ) Pressure ( in mb ) Visibility ( mi km ) Precip ( " mm )
12:54 am 00:54 undefined 41 5 27 -2.8 57 57 undefined N/A 29.65 1004 N/A 0 0
1:54 am 01:54 undefined 40 4.4 28 -2.2 63 63 undefined N/A 29.65 1004 N/A 0 0
2:54 am 02:54 undefined 36 2.2 32 0 86 86 undefined N/A 29.65 1004 N/A 0.02 0.508
3:54 am 03:54 undefined 37 2.8 33 0.6 86 86 undefined N/A 29.64 1004 N/A 0 0
4:54 am 04:54 undefined 37 2.8 33 0.6 86 86 undefined N/A 29.64 1004 N/A 0 0
5:54 am 05:54 undefined 37 2.8 33 0.6 86 86 undefined N/A 29.63 1004 N/A 0 0
6:54 am 06:54 undefined 37 2.8 32 0 82 82 undefined N/A 29.64 1004 N/A 0 0
7:54 am 07:54 undefined 37 2.8 33 0.6 86 86 undefined N/A 29.64 1004 N/A 0 0
8:54 am 08:54 undefined 39 3.9 33 0.6 79 79 undefined N/A 29.63 1003 N/A 0 0
9:54 am 09:54 undefined 40 4.4 34 1.1 79 79 undefined N/A 29.64 1004 N/A 0 0
10:54 am 10:54 undefined 42 5.6 32 0 68 68 undefined N/A 29.61 1003 N/A 0 0
11:54 am 11:54 undefined 43 6.1 32 0 65 65 undefined N/A 29.59 1002 N/A 0 0
12:54 pm 12:54 undefined 45 7.2 31 -0.6 58 58 undefined N/A 29.54 1000 N/A 0 0
1:54 pm 13:54 undefined 47 8.3 31 -0.6 54 54 undefined N/A 29.52 1000 N/A 0 0
2:54 pm 14:54 undefined 45 7.2 31 -0.6 58 58 undefined N/A 29.52 1000 N/A 0 0
3:54 pm 15:54 undefined 46 7.8 30 -1.1 54 54 undefined N/A 29.52 1000 N/A 0 0
4:54 pm 16:54 undefined 46 7.8 31 -0.6 56 56 undefined N/A 29.55 1001 N/A 0 0
5:54 pm 17:54 undefined 46 7.8 34 1.1 63 63 undefined N/A 29.57 1001 N/A 0 0
6:54 pm 18:54 undefined 46 7.8 30 -1.1 54 54 undefined N/A 29.59 1002 N/A 0 0
7:54 pm 19:54 undefined 45 7.2 28 -2.2 52 52 undefined N/A 29.6 1003 N/A 0 0
8:54 pm 20:54 undefined 45 7.2 28 -2.2 52 52 undefined N/A 29.6 1003 N/A 0 0
9:54 pm 21:54 undefined 44 6.7 28 -2.2 53 53 undefined N/A 29.62 1003 N/A 0 0
10:54 pm 22:54 undefined 43 6.1 28 -2.2 56 56 undefined N/A 29.62 1003 N/A 0 0
11:54 pm 23:54 undefined 42 5.6 28 -2.2 58 58 undefined N/A 29.63 1003 N/A 0 0

Powered by AerisWeather